TIANWANG 1A (TW-1A)
1 40928U 15051D   19341.36508834  .00001935  00000-0  47836-4 0  9990
2 40928  97.1306   8.8016 0011301 160.2279 328.5680 15.41626497235611
LAPAN A2
1 40931U 15052B   19341.11074618  .00000509  00000-0 -18212-4 0  9999
2 40931   5.9982 274.1399 0012309  57.0348 303.0986 14.76621491226638
LQSAT
1 40958U 15057A   19340.73657551 +.00000009 +00000-0 +90420-5 0  9999
2 40958 097.8805 045.1375 0019256 055.1466 305.1550 14.73099273223999
CHUBUSAT 2
1 41338U 16012B   19340.75727761  .00000226  00000-0  10826-4 0  9999
2 41338  31.0022 137.5784 0013825 356.9243   3.1306 15.00216537208626
CHUBUSAT 3
1 41339U 16012C   19341.50534235  .00000246  00000-0  12329-4 0  9998
2 41339  31.0104 130.6977 0013769  11.4281 348.6672 15.00387599208730
OUFTI-1
1 41458U 16025C   19340.81039362  .00001888  00000-0  98181-4 0  9991
2 41458  98.1009  76.3732 0166203 141.2893 220.0383 15.06283635198325
E-STAR-2
1 41459U 16025D   19341.33419360  .00001839  00000-0  96267-4 0  9999
2 41459  98.1010  76.4820 0167835 141.2633 220.0769 15.05895298198377
AAUSAT 4
1 41460U 16025E   19341.55205118  .00002805  00000-0  14125-3 0  9995
2 41460  98.0956  78.4092 0156992 131.5381 229.9437 15.07963480198566
NUSAT 1
1 41557U 16033B   19341.49424625  .00000896  00000-0  35877-4 0  9996
2 41557  97.4130  67.9789 0014973  55.1651 305.0994 15.27581715196313
BEESAT 4
1 41619U 16040W   19340.89826957 +.00001071 +00000-0 +47692-4 0  9994
2 41619 097.3477 039.7671 0012429 135.8793 224.3438 15.23518451179926
PRATHAM
1 41783U 16059A   19340.71898308 +.00000033 +00000-0 +15588-4 0  9992
2 41783 098.0464 036.3251 0033100 204.0423 155.9236 14.63024675170555
ALSAT 1N
1 41789U 16059G   19341.44981465  .00000064  00000-0  21071-4 0  9994
2 41789  98.0485  39.4135 0028139 189.9261 170.1388 14.64281402170782
NAYIF 1
1 42017U 17008BX  19341.13724030  .00001161  00000-0  48028-4 0  9993
2 42017  97.3852  46.3209 0004619 289.5820  70.4920 15.25955457156066
MAX VALIER SAT
1 42778U 17036P   19340.84552964 +.00000681 +00000-0 +32507-4 0  9991
2 42778 097.3337 034.5554 0011806 351.0902 009.0123 15.22286705136276
